Regional Weather Roundup
Issued by NWS

Home | Current Version | Previous Version | Graphics & Text | Print | Product List | Glossary Off
Versions: 1 2 3 4 5 6 7 8 9 10 11 12 13 14 15 16 17 18 19 20 21 22 23 24 25 26 27 28 29 30 31 32 33 34 35 36 37 38 39 40 41 42 43 44 45 46 47 48 49 50

000
ASUS43 KMKX 220511
RWRWI

WISCONSIN REGIONAL WEATHER ROUNDUP
NATIONAL WEATHER SERVICE MILWAUKEE/SULLIVAN WI
1200 AM CDT FRI SEP 22 2017

NOTE: "FAIR" INDICATES FEW OR NO CLOUDS BELOW 12,000 FEET WITH NO
SIGNIFICANT WEATHER AND/OR OBSTRUCTIONS TO VISIBILITY.

WIZ001-002-006>008-014>016-023>028-220600-
NORTHWEST WISCONSIN

CITY           SKY/WX    TMP DP  RH WIND       PRES   REMARKS
SUPERIOR ARPT  PTCLDY    60  57  91 NE7       29.89F
ASHLAND        PTCLDY    55  54  96 SW3       29.90F
HAYWARD        PTCLDY    72  64  76 S12       29.92R
SIREN          CLEAR     73  64  73 SE9       29.88R
CUMBERLAND     MOCLDY    68  63  83 SE7       29.91S
RICE LAKE      CLEAR     71  64  79 SE8       29.92S
CHETEK         CLEAR     70  66  85 SE6       29.92S
LADYSMITH      CLEAR     71  64  79 SE5       29.96S
EAU CLAIRE     MOCLDY    74  64  71 S9        29.91S
MENOMONIE      CLEAR     71  64  78 SE8       29.90S
NEW RICHMOND   CLEAR     73  63  72 SE9       29.87S
OSCEOLA        CLEAR     73  64  73 SE8       29.89R
$$

WIZ003>005-009-010-017-018-220600-
NORTH CENTRAL WISCONSIN

CITY           SKY/WX    TMP DP  RH WIND       PRES   REMARKS
MANITOWISH WTR MOCLDY    66  66 100 SE5       29.98F
ARBOR VITAE    CLEAR     67  65  94 SE5       29.99S
WOODRUFF       CLEAR     67  65  94 SE5       29.99S
RHINELANDER    CLEAR     67  66  97 SE5       30.00F
EAGLE RIVER    CLEAR     66  66 100 SE3       30.00F FOG
LAND O LAKES   CLEAR     67  66  97 S7        30.02S FOG
PHILLIPS       CLEAR     68  66  93 SE6       29.96F
TOMAHAWK       CLEAR     67  64  89 CALM      30.00R
MEDFORD        CLEAR     68  64  85 SE6       29.98S
MERRILL        CLEAR     68  67  94 CALM      29.99F
$$

WIZ029-030-035-036-043>047-220600-
CENTRAL WISCONSIN

CITY           SKY/WX    TMP DP  RH WIND       PRES   REMARKS
WAUSAU         CLEAR     67  64  90 E5        29.97F
MOSINEE        CLEAR     68  64  88 SE7       30.00S
MARSHFIELD     CLEAR     69  63  81 S7        29.97R
STEVENS POINT  CLEAR     69  66  90 SE6       29.99S
WAUPACA        CLEAR     68  67  96 CALM      30.00R
WAUTOMA        CLEAR     66  65  96 MISG        N/A
WISC RAPIDS    CLEAR     72  66  81 SE6       29.98S
CAMP DOUGLAS   CLEAR     66  66 100 CALM      29.96S
$$

WIZ011>013-019>022-031-037>040-048>050-220600-
NORTHEAST WISCONSIN

CITY           SKY/WX    TMP DP  RH WIND       PRES   REMARKS
ANTIGO         CLEAR     66  66 100 SE9       30.02S FOG
SHAWANO        CLEAR     69  66  90 CALM      30.00S
OCONTO         CLEAR     62  62  99 CALM      30.00F
STURGEON BAY   FOG       66  65  96 S6        30.03S VSB 1
GREEN BAY      CLEAR     66  66 100 CALM      30.00S
MANITOWOC      CLOUDY    64  63  96 CALM      30.02S
APPLETON       CLEAR     70  63  78 S7        29.99S
CLINTONVILLE   CLEAR     68  66  94 CALM      30.00S FOG
OSHKOSH        CLEAR     68  66  93 S5        29.99S
$$

WIZ032>034-041-042-053>061-220600-
SOUTHWEST WISCONSIN

CITY           SKY/WX    TMP DP  RH WIND       PRES   REMARKS
LA CROSSE      NOT AVBL
SPARTA         PTCLDY    76  66  71 S13       29.94F
VIROQUA        CLEAR     72  68  87 CALM      29.97S
BOSCOBEL       PTCLDY    70  66  87 CALM      29.96R
PRAIRIE DU CHI CLEAR     78  66  66 SE8       29.94S HX  80
PLATTEVILLE    CLEAR     72  70  92 SE5       29.99S
$$

WIZ056-057-062-063-064-067-068-220600-
SOUTH CENTRAL WISCONSIN

CITY           SKY/WX    TMP DP  RH WIND       PRES   REMARKS
REEDSBURG      CLEAR     72  66  83 CALM      29.98R
BARABOO/DELLS  CLEAR     73  64  72 SW5       29.99R
LONE ROCK      CLEAR     70  66  87 E8        29.97S
MINERAL POINT  CLEAR     72  70  94 SE6       30.00S
MADISON        CLEAR     75  66  73 S5        29.99R
MIDDLETON      CLEAR     66  66 100 W3        30.01R
WATERTOWN      CLEAR     71  70  96 CALM      30.00S
MONROE         CLEAR     72  64  78 S6        30.00S
JANESVILLE     CLEAR     72  66  83 SE6       30.00R
$$

WIZ051-052-058>065-066-070>072-220600-
SOUTHEAST WISCONSIN

CITY           SKY/WX    TMP DP  RH WIND       PRES   REMARKS
MILWAUKEE      PTCLDY    74  70  87 S6        30.01S
WAUKESHA       CLEAR     64  63  94 CALM      30.03S
MILWAUKEE/TIMM CLEAR     68  63  83 CALM      30.02S HAZE
RACINE         PTCLDY    73  70  90 S5        30.03S
BURLINGTON     PTCLDY    66  66 100 CALM      30.02S FOG
KENOSHA        PTCLDY    73  69  87 S5        30.02S
FOND DU LAC    CLEAR     69  65  86 S3        30.00S
SHEBOYGAN      FOG       64  64 100 CALM      30.02S VSB 1/2
WEST BEND        N/A     63  63 100 CALM      30.02F FOG
JUNEAU         CLEAR     70  66  87 SE6       30.02S
$$

LSZ147-162-220600-
LAKE SUPERIOR

STATION/POSITION TIME  TEMP    WIND        PRES    WAVE
                       AIR SEA DIR/SP/G            HT/PER
                 (UTC) (F)     (DEG/KT/KT) (MB)    (FT/S)
W MID LAKE BUOY  0350   59 55  100/  8/ 10 1013.3F   2/ 4
DEVILS ISLAND    0500   60      70/  6/  6 1012.5F
SAXON HARBOR     0440   62      50/  2/  3 1012.2S
$$

LMZ867-665-643>646-220600-
LAKE MICHIGAN

STATION/POSITION TIME  TEMP    WIND        PRES    WAVE
                       AIR SEA DIR/SP/G            HT/PER
                 (UTC) (F)     (DEG/KT/KT) (MB)    (FT/S)
S GREEN BAY BUOY 0500   66 67   60/  2/  2 1016.0
N MID LAKE BUOY  0450   67 66  160/  4/  4 1017.0S   1
NORTHPORT PIER   0440   68     170/  3/  6 1016.3S
KEWAUNEE LAKESHO 0448   63     130/  3/  3 1015.3F
SHEBOYGAN LAKESH 0500   68     170/  4/  5 1016.0F
PORT WASHINGTON  0340   71     220/  2/  3 1017.3R
ATWATER BUOY     0439   69 68  170/  2/  2 1016.5F
MILWAUKEE LAKESH 0450   70      CALM  /  1   N/A
S MID LAKE BUOY  0450   73 70  120/ 12/ 12 1016.5S   1/ 2
KENOSHA   LAKESH 0500   73     180/  6/  8 1015.9
$$

TC  - TEMPERATURE IN CELSIUS
VSB - VISIBILITY IN STATUTE MILES
WCI - WIND CHILL INDEX
HX  - HEAT INDEX





USA.gov is the U.S. government's official web portal to all federal, state and local government web resources and services.